Tracking 29892 objects as of 21-Nov-2024
HD Live streaming from Space Station
objects crossing your sky now

STARLINK-2169

Track STARLINK-2169 now!
10-day predictions
STARLINK-2169 is classified as:


NORAD ID: 47752
Int'l Code: 2021-017AG
Perigee: 553.1 km
Apogee: 555.5 km
Inclination: 53.1 °
Period: 95.6 minutes
Semi major axis: 6925 km
RCS: Unknown
Launch date: March 4, 2021
Source: United States (US)
Launch site: AIR FORCE EASTERN TEST RANGE (AFETR)
Your satellite tracking list
Your tracking list is empty




NASA's NSSDC Master Catalog

Two Line Element Set (TLE):
1 47752U 21017AG  24325.60285485  .00004060  00000-0  29118-3 0  9994
2 47752  53.0525 174.8751 0001790 102.2496 257.8693 15.06416266205713
Source of the keplerian elements: AFSPC